Flag for Botswana Weather past 2 weeks in Francistown, Botswana

Now
72 °F

Passing clouds.


Feels Like: 67 °F
Forecast: 69 / 80 °F
Wind: 3 mph from Northwest

Location: Francistown Airport

Current Time: Dec 28, 2014 at 8:05:44 PM

Latest Report: Dec 28, 2014 at 7:00 PM


Visibility: N/A

Pressure: 29.89 "Hg

Humidity: 94%

Dew point: 70 °F

Location of FrancistownLocation

Historic Weather in Francistown — Graph

°F

Francistown temperature yesterday

Maximum temperature yesterday: 81 °F (at 1:00 PM)
Minimum temperature yesterday: 70 °F (at 12:00 AM)
Average temperature yesterday: 73 °F

Past Weeks' High & Low Weather Summary

 TemperatureHumidityPressure
High90 °F (Dec 21, 1:00 PM)100% (Dec 16, 2:00 AM)30.09 "Hg (Dec 16, 2:00 AM)
Low63 °F (Dec 24, 5:00 AM)33% (Dec 24, 2:00 PM)29.83 "Hg (Dec 26, 3:00 PM)
Average74 °F79%29.99 "Hg
* Reported Dec 13 7:00 PM — Dec 28 7:00 PM, Francistown, Weather by CustomWeather, © 2014

Note: Actual official high and low records may vary slightly from our data, if they occured in-between our weather recording intervals... More about our weather records

Advertising

Francistown weather history for previous 24 hours

 ConditionsComfort  
Time TempWeatherWind HumidityBarometerVisibility
7:00 PM
Dec 28
72 °FPassing clouds.3 mph94%29.89 "HgN/A
6:00 PM73 °FPassing clouds.6 mph89%29.89 "HgN/A
4:00 PM73 °FThunderstorms. Partly sunny.9 mph83%29.89 "HgN/A
3:00 PM73 °FThunderstorms. Scattered clouds.8 mph89%29.89 "HgN/A
2:00 PM73 °FThunderstorms. Scattered clouds.8 mph94%29.92 "HgN/A
1:00 PM82 °FPartly sunny.15 mph66%29.89 "HgN/A
12:00 PM81 °FPartly sunny.9 mph66%29.92 "HgN/A
11:00 AM81 °FPartly sunny.13 mph70%29.95 "HgN/A
10:00 AM79 °FScattered clouds.12 mph70%29.95 "HgN/A
9:00 AM75 °FPassing clouds.6 mph78%29.92 "HgN/A
8:00 AM73 °FScattered clouds.6 mph83%29.95 "HgN/A
7:00 AM72 °FScattered clouds.5 mph88%29.92 "HgN/A
6:00 AM68 °FScattered clouds.1 mph94%29.92 "HgN/A
5:00 AM70 °FScattered clouds.8 mph94%29.89 "HgN/A
4:00 AM70 °FPartly cloudy.3 mph100%29.89 "HgN/A
2:00 AM70 °FPartly cloudy.1 mph100%29.89 "HgN/A
1:00 AM70 °FPassing clouds.No wind100%29.89 "HgN/A
12:00 AM70 °FPassing clouds.3 mph100%29.92 "HgN/A
11:00 PM
Dec 27
72 °FPassing clouds.5 mph94%29.95 "HgN/A
10:00 PM72 °FPassing clouds.5 mph94%29.95 "HgN/A
9:00 PM72 °FPassing clouds.5 mph100%29.92 "HgN/A
8:00 PM72 °FPassing clouds.1 mph100%29.92 "HgN/A
Weather by CustomWeather, © 2014

See weather overviewHow to use our weather pages